Weather History for KDXR - March, 2013

Change the Weather History Date:

Thursday, March 14, 2013

  Actual Average Record
Temperature  
Mean Temperature 30 °F -  
Max Temperature 35 °F 44 °F 73 °F (1957)
Min Temperature 26 °F 28 °F 12 °F (1993)
Degree Days  
Heating Degree Days 34    
Moisture  
Dew Point 11 °F    
Average Humidity 45    
Maximum Humidity 73    
Minimum Humidity 28    
Precipitation  
Precipitation 0.00 in - - ()
Sea Level Pressure  
Sea Level Pressure 29.87 in    
Wind  
Wind Speed 10 mph (WNW)    
Max Wind Speed 17 mph    
Max Gust Speed 31 mph    
Visibility 10 miles    
Events      
Averages and records for this station are not official NWS values.
T = Trace of Precipitation, MM = Missing Value Source: NWS Daily Summary

Daily Weather History Graph

Daily Weather History Graph

Search for Another Location

Airport or City:

Trip Planner

Search our weather history database for the weather conditions in past years. The results will help you decide how hot, cold, wet, or windy it might be!

Date:

Astronomy

Mar. 14, 2013 Rise Set
Actual Time 7:06 AM EDT 6:59 PM EDT
Civil Twilight 6:39 AM EDT 7:27 PM EDT
Nautical Twilight 6:07 AM EDT 7:59 PM EDT
Astronomical Twilight 5:34 AM EDT 8:32 PM EDT
Moon 8:16 AM EDT (3/14) 10:16 PM EDT (3/14)
Length of Visible Light 12h 47m
Length of Day
11h 52m
Waxing Crescent, 9% of the Moon is Illuminated
Mar 14
Waxing Crescent
Mar 19
First Quarter
Mar 27
Full
Apr 3
Last Quarter
Apr 10
New

Hourly Weather History & Observations

Time (EDT) Temp. Windchill Dew Point Humidity Pressure Visibility Wind Dir Wind Speed Gust Speed Precip Events Conditions
12:53 AM 34.0 °F 31.0 °F 26.1 °F 73% 29.84 in 10.0 mi WSW 3.5 mph - N/A   Scattered Clouds
1:53 AM 35.1 °F 26.9 °F 25.0 °F 67% 29.85 in 10.0 mi West 11.5 mph 21.9 mph N/A   Overcast
2:53 AM 32.0 °F 25.6 °F 21.0 °F 64% 29.86 in 10.0 mi West 6.9 mph - N/A   Overcast
3:53 AM 32.0 °F 24.2 °F 19.0 °F 59% 29.84 in 10.0 mi West 9.2 mph 18.4 mph N/A   Overcast
4:53 AM 30.9 °F 20.7 °F 12.9 °F 47% 29.84 in 10.0 mi West 13.8 mph 18.4 mph N/A   Partly Cloudy
5:53 AM 28.9 °F 18.2 °F 10.0 °F 45% 29.86 in 10.0 mi West 13.8 mph 26.5 mph N/A   Clear
6:53 AM 28.9 °F 18.2 °F 10.9 °F 47% 29.86 in 10.0 mi WNW 13.8 mph 20.7 mph N/A   Scattered Clouds
7:53 AM 28.9 °F 22.8 °F 10.9 °F 47% 29.88 in 10.0 mi Variable 5.8 mph 18.4 mph N/A   Overcast
8:53 AM 26.1 °F 14.0 °F 9.0 °F 49% 29.90 in 10.0 mi West 15.0 mph 24.2 mph N/A   Overcast
9:53 AM 28.0 °F 17.0 °F 8.1 °F 43% 29.91 in 10.0 mi NW 13.8 mph 21.9 mph N/A   Overcast
10:53 AM 28.0 °F 17.0 °F 7.0 °F 41% 29.91 in 10.0 mi WNW 13.8 mph 29.9 mph N/A   Partly Cloudy
11:53 AM 28.0 °F 15.7 °F 9.0 °F 45% 29.90 in 10.0 mi WNW 17.3 mph 24.2 mph N/A   Mostly Cloudy
12:53 PM 28.9 °F 19.2 °F 10.0 °F 45% 29.88 in 10.0 mi NW 11.5 mph 27.6 mph N/A   Overcast
1:53 PM 30.0 °F 18.3 °F 10.0 °F 43% 29.86 in 10.0 mi WNW 17.3 mph 28.8 mph N/A   Overcast
2:53 PM 30.9 °F 22.2 °F 10.0 °F 42% 29.84 in 10.0 mi NW 10.4 mph 27.6 mph N/A   Overcast
3:53 PM 33.1 °F 22.6 °F 10.0 °F 38% 29.84 in 10.0 mi NW 16.1 mph 28.8 mph N/A   Overcast
4:53 PM 34.0 °F 25.0 °F 10.0 °F 37% 29.84 in 10.0 mi WNW 12.7 mph 31.1 mph N/A   Overcast
5:53 PM 34.0 °F 25.5 °F 9.0 °F 35% 29.84 in 10.0 mi WNW 11.5 mph 24.2 mph N/A   Overcast
6:53 PM 33.1 °F 27.7 °F 10.0 °F 38% 29.85 in 10.0 mi WNW 5.8 mph - N/A   Scattered Clouds
7:53 PM 33.1 °F 22.6 °F 3.0 °F 28% 29.87 in 10.0 mi WNW 16.1 mph 23.0 mph N/A   Partly Cloudy
8:53 PM 30.0 °F 21.1 °F 12.9 °F 49% 29.90 in 10.0 mi NNW 10.4 mph 16.1 mph N/A   Mostly Cloudy
9:53 PM 30.9 °F 24.3 °F 10.0 °F 42% 29.91 in 10.0 mi NW 6.9 mph - N/A   Overcast
10:53 PM 30.9 °F 21.2 °F 5.0 °F 33% 29.91 in 10.0 mi WNW 12.7 mph 19.6 mph N/A   Overcast
11:53 PM 30.9 °F 22.2 °F 6.1 °F 35% 29.92 in 10.0 mi West 10.4 mph - N/A   Overcast